Content
SEND FEEDBACK

Daily
Averages
Monthly
Summary
United States of America

BOSTON, MASSACHUSETTS


Home > North America > United States > Massachusetts
Elevation: 4 feet     Latitude: 42 22N     Longitude: 071 02W

WEATHER
 
SELECT A DAY
Number of Records: 202,348;   Date Range: 1/1/95 - 7/7/14
 
SHARE

PRINT THIS DATA

[ ← Previous Day ]
WEATHER ALMANAC - JANUARY 2, 2013
[ Next Day → ]
[ °C ]   °F
Weather ElementAverageHighLow
Temperature21.6 °F28.9 °F (11:54 am)12 °F (11:54 pm)
Dewpoint6.5 °F12 °F (11:54 am)-2 °F (11:54 pm)
Humidity52.2 %59 % (7:54 am)48 % (6:54 pm)
Barometer29.98 in30.10 in (10:54 pm)29.90 in (12:54 pm)
Wind Speed13.8 mph20.7 mph (12:54 pm)
Wind Gust31.1 mph (12:54 pm)
Weather ElementAverage
Visibility10 mi
Wind DirectionWNW (297 °)

Weather ElementTotal
Precipitation---
Heating Degree Days44.6 (Base 65)
Averaged from 23 records on January 2, 2013
WEATHER CONDITIONS BREAKOUT
WIND DIRECTION BREAKOUT
WEATHER BY HOUR - JANUARY 2, 2013
[ °C ]   °F
Local TimeTemperatureDewpointHumidityBarometerVisibilityWind DirectionWind SpeedGust SpeedPrecipitationEventsConditions
1:54 AM18.0 °F1.9 °F50 %29.96 in10.0 miWNW (300°)12.7 mphPartly Cloudy
2:54 AM18.0 °F1.9 °F50 %29.96 in10.0 miWNW (300°)8.1 mphClear
3:54 AM18.0 °F1.9 °F50 %29.95 in10.0 miWest (280°)9.2 mphClear
4:54 AM18.0 °F3.0 °F52 %29.94 in10.0 miWNW (290°)12.7 mphClear
5:54 AM17.1 °F3.9 °F56 %29.94 in10.0 miWNW (290°)10.4 mphClear
6:54 AM18.0 °F5.0 °F57 %29.94 in10.0 miWest (270°)9.2 mphScattered Clouds
7:54 AM19.0 °F7.0 °F59 %29.94 in10.0 miWest (260°)10.4 mphScattered Clouds
8:54 AM21.0 °F7.0 °F55 %29.93 in10.0 miWest (270°)10.4 mph18.4 mphScattered Clouds
9:54 AM23.0 °F9.0 °F55 %29.95 in10.0 miWest (280°)10.4 mphScattered Clouds
10:54 AM26.1 °F10.9 °F53 %29.93 in10.0 miWNW (290°)17.3 mph25.3 mphMostly Cloudy
11:54 AM28.9 °F12.0 °F49 %29.91 in10.0 miWest (280°)13.8 mph23.0 mphMostly Cloudy
12:54 PM28.9 °F12.0 °F49 %29.90 in10.0 miWNW (290°)20.7 mph31.1 mphMostly Cloudy
1:54 PM28.9 °F12.0 °F49 %29.91 in10.0 miWNW (290°)17.3 mph21.9 mphScattered Clouds
2:54 PM28.0 °F12.0 °F51 %29.94 in10.0 miWNW (290°)16.1 mph24.2 mphMostly Cloudy
3:54 PM28.0 °F12.0 °F51 %29.97 in10.0 miNW (320°)15.0 mph25.3 mphMostly Cloudy
4:54 PM26.1 °F12.0 °F55 %30.00 in10.0 miNW (320°)11.5 mph0.00 inScattered Clouds
5:54 PM25.0 °F8.1 °F49 %30.02 in10.0 miNW (320°)16.1 mph25.3 mphScattered Clouds
6:54 PM23.0 °F6.1 °F48 %30.04 in10.0 miNW (310°)15.0 mph23.0 mphClear
7:54 PM21.0 °F5.0 °F50 %30.05 in10.0 miWNW (290°)17.3 mph28.8 mphClear
8:54 PM19.9 °F3.9 °F50 %30.06 in10.0 miWNW (300°)15.0 mph21.9 mphClear
9:54 PM18.0 °F3.9 °F54 %30.08 in10.0 miNNW (340°)15.0 mph20.7 mphClear
10:54 PM14.0 °F1.0 °F56 %30.10 in10.0 miNNW (330°)13.8 mph20.7 mphClear
11:54 PM12.0 °F-2.0 °F53 %30.09 in10.0 miNW (320°)19.6 mph28.8 mphClear
Hourly data recorded from KBOS, located miles away from Boston, Massachusetts







STORIES FROM OUR PARTNERS